Location: Bucquoy
(50.1391°N, 2.7097°E)
Time: 21:40:07
(UTC+00:00)

Cosmos 1707 - Pass Details

Date: 06 May 2021
Orbit: 516 x 528 km, 82.5° (Epoch: 20 June)

Event Time Altitude Azimuth Distance (km) Brightness Sun altitude
Exits shadow 02:56:03 17° 229° (SW) 1,361 4.2 -11.3°
Maximum altitude 02:58:29 34° 287° (WNW) 866 3.6 -11.0°
Drops below altitude 10° 03:02:02 10° 354° (N) 1,758 5.9 -10.6°
Sets 03:04:20 0° 4° (N) 2,650 7.1 -10.3°
